Date String (YYYY-MM-DD hh:mm:ss) UTC,Instrument flags,Ambient pressure (hPa),Sample flow (lpm),Bypass flow (lpm),Sample temperature (°C),Ambient temperature (°C),ASC tube jacket temperature (°C),LED temperature (°C),Box temperature (°C),Sample RH (%),Span deviation,Mass concentration (μg/m³),Mass concentration (μg/m³),Mass concentration (μg/m³)
DateTimeUTC,F1_M11,P_M11,Q1_M11,Q2_M11,T1_M11,T2_M11,T3_M11,T4_M11,T5_M11,U1_M11,ZSPAN_M11,X0_M11,X2_M11,X1_M11
2023-03-11 15:00:00,,0815.1,4.99,0.00,22.5,21.3,00.0,31.3,24.4,20.8,0000.0,0002.02,0001.33,0001.06
2023-03-11 15:01:00,,0814.9,5.00,0.00,22.5,21.3,00.0,31.3,24.4,19.9,0000.0,0002.00,0001.32,0001.08
2023-03-11 15:02:00,,0815.4,4.99,0.00,22.5,21.3,00.0,31.3,24.4,19.6,0000.0,0001.98,0001.30,0001.07
2023-03-11 15:03:00,,0815.3,5.00,0.00,22.6,21.3,00.0,31.3,24.4,19.8,0000.0,0002.04,0001.32,0001.09
2023-03-11 15:04:00,,0815.2,5.00,0.00,22.6,21.3,00.0,31.3,24.4,20.2,0000.0,0002.06,0001.32,0001.10
2023-03-11 15:05:00,,0815.1,5.00,0.00,22.6,22.3,00.0,31.3,24.6,20.1,0000.0,0002.02,0001.33,0001.10
2023-03-11 15:06:00,,0815.1,4.97,0.00,22.7,23.4,00.0,31.3,24.9,20.0,0000.0,0002.14,0001.36,0001.12
2023-03-11 15:07:00,,0815.1,5.01,0.00,22.8,23.4,00.0,31.4,24.9,20.1,0000.0,0002.19,0001.39,0001.15
2023-03-11 15:08:00,,0815.0,5.01,0.00,22.9,23.0,00.0,31.4,24.9,20.6,0000.0,0002.30,0001.41,0001.17
2023-03-11 15:09:00,,0815.0,5.00,0.00,22.9,22.6,00.0,31.4,24.8,20.2,0000.0,0002.29,0001.42,0001.19
2023-03-11 15:10:00,,0814.9,5.00,0.00,22.9,22.3,00.0,31.5,24.8,20.0,0000.0,0002.33,0001.45,0001.21
2023-03-11 15:11:00,,0815.1,5.00,0.00,22.9,22.0,00.0,31.5,24.8,19.4,0000.0,0002.34,0001.45,0001.21
2023-03-11 15:12:00,,0815.1,5.00,0.00,22.9,21.9,00.0,31.5,24.8,19.3,0000.0,0002.43,0001.47,0001.22
2023-03-11 15:13:00,,0815.1,5.01,0.00,22.9,21.7,00.0,31.5,24.8,19.6,0000.0,0002.79,0001.58,0001.24
2023-03-11 15:14:00,,0815.3,5.00,0.00,22.9,21.6,00.0,31.5,24.8,19.7,0000.0,0003.04,0001.64,0001.24
2023-03-11 15:15:00,,0815.5,4.99,0.00,22.9,21.5,00.0,31.5,24.8,19.9,0000.0,0003.06,0001.66,0001.25
2023-03-11 15:16:00,,0815.1,5.01,0.00,22.9,21.5,00.0,31.5,24.7,19.9,0000.0,0003.07,0001.67,0001.25
2023-03-11 15:17:00,,0815.1,5.01,0.00,22.9,21.5,00.0,31.5,24.7,19.1,0000.0,0002.92,0001.64,0001.24
2023-03-11 15:18:00,,0815.0,5.01,0.00,22.9,21.4,00.0,31.5,24.7,18.7,0000.0,0002.92,0001.63,0001.22
2023-03-11 15:19:00,,0815.1,5.00,0.00,22.9,21.3,00.0,31.5,24.7,18.2,0000.0,0002.84,0001.62,0001.19
2023-03-11 15:20:00,,0815.3,4.99,0.00,22.9,21.3,00.0,31.5,24.7,17.3,0000.0,0002.73,0001.57,0001.15
2023-03-11 15:21:00,,0815.3,5.00,0.00,22.8,21.2,00.0,31.5,24.6,16.9,0000.0,0002.60,0001.50,0001.12
2023-03-11 15:22:00,,0815.3,5.00,0.00,22.8,21.2,00.0,31.5,24.7,16.8,0000.0,0002.65,0001.48,0001.08
2023-03-11 15:23:00,,0815.4,5.00,0.00,22.8,21.2,00.0,31.5,24.6,17.0,0000.0,0003.01,0001.47,0001.04
2023-03-11 15:24:00,,0815.4,4.99,0.00,22.8,21.2,00.0,31.5,24.6,16.8,0000.0,0002.87,0001.43,0001.01
2023-03-11 15:25:00,,0816.1,5.00,0.00,22.8,21.1,00.0,31.5,24.6,16.5,0000.0,0002.61,0001.36,0000.97
2023-03-11 15:26:00,,0815.7,4.99,0.00,22.8,21.1,00.0,31.5,24.6,16.3,0000.0,0002.69,0001.33,0000.93
2023-03-11 15:27:00,,0815.6,4.99,0.00,22.8,21.1,00.0,31.5,24.6,16.3,0000.0,0002.64,0001.29,0000.89
2023-03-11 15:28:00,,0815.6,4.99,0.00,22.8,21.1,00.0,31.5,24.6,16.2,0000.0,0002.70,0001.31,0000.87
2023-03-11 15:29:00,,0815.3,5.00,0.00,22.8,21.1,00.0,31.5,24.6,16.3,0000.0,0002.82,0001.29,0000.84
2023-03-11 15:30:00,,0815.2,5.01,0.00,22.8,21.1,00.0,31.5,24.6,16.3,0000.0,0002.87,0001.25,0000.82
2023-03-11 15:31:00,,0815.5,5.00,0.00,22.7,21.1,00.0,31.5,24.6,16.6,0000.0,0003.86,0001.27,0000.81
2023-03-11 15:32:00,,0816.0,5.01,0.00,22.7,21.1,00.0,31.5,24.6,16.8,0000.0,0003.94,0001.28,0000.80
2023-03-11 15:33:00,,0815.8,5.01,0.00,22.7,21.1,00.0,31.5,24.6,17.3,0000.0,0003.85,0001.27,0000.80
2023-03-11 15:34:00,,0815.7,5.01,0.00,22.7,21.2,00.0,31.5,24.6,16.6,0000.0,0003.50,0001.25,0000.80
2023-03-11 15:35:00,,0815.6,4.99,0.00,22.7,21.3,00.0,31.5,24.6,16.5,0000.0,0003.51,0001.23,0000.79
2023-03-11 15:36:00,,0815.7,4.99,0.00,22.7,21.3,00.0,31.5,24.6,16.5,0000.0,0003.65,0001.27,0000.79
2023-03-11 15:37:00,,0815.7,5.00,0.00,22.7,21.3,00.0,31.5,24.6,16.6,0000.0,0003.60,0001.27,0000.79
2023-03-11 15:38:00,,0815.7,5.00,0.00,22.8,21.3,00.0,31.5,24.6,16.7,0000.0,0003.54,0001.26,0000.79
2023-03-11 15:39:00,,0816.0,4.99,0.00,22.8,21.3,00.0,31.5,24.6,16.8,0000.0,0003.58,0001.25,0000.80
2023-03-11 15:40:00,,0816.1,5.00,0.00,22.8,21.3,00.0,31.5,24.6,16.8,0000.0,0003.52,0001.25,0000.82
2023-03-11 15:41:00,,0815.9,5.01,0.00,22.8,21.5,00.0,31.5,24.6,16.8,0000.0,0003.40,0001.27,0000.83
2023-03-11 15:42:00,,0815.7,4.99,0.00,22.9,22.8,00.0,31.5,24.9,16.6,0000.0,0002.56,0001.28,0000.84
2023-03-11 15:43:00,,0815.7,5.01,0.00,23.0,23.7,00.0,31.5,25.1,16.3,0000.0,0002.65,0001.29,0000.84
2023-03-11 15:44:00,,0815.7,4.98,0.00,23.1,23.5,00.0,31.6,25.1,16.1,0000.0,0003.21,0001.31,0000.85
2023-03-11 15:45:00,,0815.6,4.99,0.00,23.1,23.1,00.0,31.6,25.0,16.0,0000.0,0003.49,0001.33,0000.86
2023-03-11 15:46:00,,0815.7,5.00,0.00,23.1,22.7,00.0,31.6,25.0,15.7,0000.0,0004.29,0001.33,0000.87
2023-03-11 15:47:00,,0815.7,5.00,0.00,23.1,22.5,00.0,31.7,25.0,15.7,0000.0,0004.98,0001.33,0000.87
2023-03-11 15:48:00,,0815.8,5.01,0.00,23.1,22.3,00.0,31.7,25.0,15.5,0000.0,0004.87,0001.31,0000.88
2023-03-11 15:49:00,,0816.1,5.00,0.00,23.1,22.1,00.0,31.7,25.0,15.4,0000.0,0004.93,0001.33,0000.89
2023-03-11 15:50:00,,0816.1,5.00,0.00,23.1,21.9,00.0,31.7,24.9,15.2,0000.0,0005.08,0001.37,0000.89
2023-03-11 15:51:00,,0816.0,5.01,0.00,23.1,21.8,00.0,31.7,24.9,15.1,0000.0,0005.14,0001.37,0000.87
2023-03-11 15:52:00,,0816.0,5.00,0.00,23.1,21.7,00.0,31.7,24.9,15.3,0000.0,0005.12,0001.37,0000.87
2023-03-11 15:53:00,,0815.8,5.00,0.00,23.1,21.6,00.0,31.7,24.9,15.2,0000.0,0005.08,0001.35,0000.86
2023-03-11 15:54:00,,0815.6,5.00,0.00,23.1,21.6,00.0,31.7,24.9,15.0,0000.0,0004.93,0001.36,0000.86
2023-03-11 15:55:00,,0815.7,5.01,0.00,23.1,21.6,00.0,31.8,24.9,15.1,0000.0,0004.90,0001.37,0000.86
2023-03-11 15:56:00,,0815.7,5.00,0.00,23.1,21.6,00.0,31.8,24.9,14.9,0000.0,0004.52,0001.37,0000.85
2023-03-11 15:57:00,,0815.7,5.00,0.00,23.1,21.6,00.0,31.8,24.9,15.4,0000.0,0004.92,0001.32,0000.84
2023-03-11 15:58:00,,0815.6,5.00,0.00,23.1,21.6,00.0,31.8,24.9,15.1,0000.0,0004.12,0001.29,0000.84
2023-03-11 15:59:00,,0815.6,5.00,0.00,23.1,21.6,00.0,31.8,24.9,15.1,0000.0,0004.45,0001.34,0000.84
